Weather History for KAZO - December, 2012

Change the Weather History Date:

Wednesday, December 12, 2012

  Actual Average Record
Temperature  
Mean Temperature 34 °F 30 °F  
Max Temperature 43 °F 36 °F 62 °F (1949)
Min Temperature 25 °F 24 °F -5 °F (1962)
Degree Days  
Heating Degree Days 31 35  
Month to date heating degree days 301 400  
Since 1 July heating degree days 1682 1727  
Cooling Degree Days 0 0  
Month to date cooling degree days 0 0  
Year to date cooling degree days 1051 675  
Moisture  
Dew Point 24 °F    
Average Humidity 69    
Maximum Humidity 88    
Minimum Humidity 49    
Precipitation  
Precipitation 0.00 in 0.07 in 1.22 in (1967)
Month to date precipitation 0.63 0.91  
Year to date precipitation 26.31 34.67  
Sea Level Pressure  
Sea Level Pressure 30.30 in    
Wind  
Wind Speed 9 mph (SSW)    
Max Wind Speed 16 mph    
Max Gust Speed 21 mph    
Visibility 9 miles    
Events      
T = Trace of Precipitation, MM = Missing Value Source: NWS Daily Summary

Daily Weather History Graph

Daily Weather History Graph

Search for Another Location

Airport or City:

Trip Planner

Search our weather history database for the weather conditions in past years. The results will help you decide how hot, cold, wet, or windy it might be!

Date:

Astronomy

Dec. 12, 2012 Rise Set
Actual Time 8:02 AM EST 5:10 PM EST
Civil Twilight 7:30 AM EST 5:42 PM EST
Nautical Twilight 6:55 AM EST 6:17 PM EST
Astronomical Twilight 6:20 AM EST 6:51 PM EST
Moon 7:05 AM EST (12/12) 4:46 PM EST (12/12)
Length of Visible Light 10h 11m
Length of Day
9h 08m
Waning Crescent, 1% of the Moon is Illuminated
Dec 12
Waning Crescent
Dec 13
New
Dec 20
First Quarter
Dec 28
Full
Jan 4
Last Quarter

Hourly Weather History & Observations

Time (EST) Temp. Windchill Dew Point Humidity Pressure Visibility Wind Dir Wind Speed Gust Speed Precip Events Conditions
12:53 AM 28.9 °F 19.8 °F 23.0 °F 78% 30.18 in 9.0 mi SW 10.4 mph - N/A   Scattered Clouds
1:53 AM 28.0 °F 20.0 °F 23.0 °F 81% 30.19 in 8.0 mi SW 8.1 mph - N/A   Scattered Clouds
2:53 AM 28.0 °F 20.0 °F 24.1 °F 85% 30.21 in 8.0 mi SSW 8.1 mph - N/A   Overcast
3:53 AM 27.0 °F 18.0 °F 23.0 °F 85% 30.22 in 7.0 mi SSW 9.2 mph - N/A   Scattered Clouds
4:53 AM 27.0 °F 18.7 °F 23.0 °F 85% 30.23 in 7.0 mi South 8.1 mph - N/A   Clear
5:53 AM 26.1 °F 16.8 °F 21.9 °F 84% 30.25 in 6.0 mi South 9.2 mph - N/A   Clear
6:53 AM 25.0 °F 14.8 °F 21.9 °F 88% 30.27 in 6.0 mi South 10.4 mph - N/A   Clear
7:53 AM 26.6 °F 17.5 °F 21.2 °F 80% 30.25 in 7.0 mi SSW 9.2 mph - N/A   Clear
8:53 AM 27.0 °F 17.3 °F 23.0 °F 85% 30.31 in 5.0 mi SSW 10.4 mph - N/A   Clear
9:53 AM 30.9 °F 22.2 °F 24.1 °F 76% 30.33 in 7.0 mi SSW 10.4 mph - N/A   Clear
10:53 AM 35.1 °F 27.9 °F 25.0 °F 67% 30.35 in 9.0 mi SSW 9.2 mph - N/A   Clear
11:53 AM 39.0 °F 33.4 °F 26.1 °F 60% 30.35 in 10.0 mi South 8.1 mph - N/A   Clear
12:53 PM 42.1 °F 36.1 °F 24.1 °F 49% 30.34 in 10.0 mi SSW 10.4 mph - N/A   Clear
1:53 PM 43.0 °F 36.4 °F 24.1 °F 47% 30.33 in 10.0 mi SSW 12.7 mph - N/A   Clear
2:53 PM 43.0 °F 36.4 °F 24.1 °F 47% 30.32 in 10.0 mi South 12.7 mph - N/A   Clear
3:06 PM 42.8 °F 35.8 °F 24.8 °F 49% 30.29 in 10.0 mi South 13.8 mph - N/A   Clear
3:53 PM 42.1 °F 36.1 °F 24.1 °F 49% 30.32 in 10.0 mi SSW 10.4 mph - N/A   Clear
4:53 PM 37.9 °F 32.1 °F 25.0 °F 60% 30.33 in 10.0 mi South 8.1 mph - N/A   Clear
5:53 PM 36.0 °F 31.1 °F 25.0 °F 64% 30.34 in 10.0 mi South 5.8 mph - N/A   Clear
6:53 PM 35.1 °F 30.1 °F 25.0 °F 67% 30.35 in 10.0 mi South 5.8 mph - N/A   Clear
7:53 PM 34.0 °F 28.8 °F 25.0 °F 70% 30.35 in 10.0 mi SSE 5.8 mph - N/A   Clear
8:53 PM 33.1 °F 25.5 °F 25.0 °F 72% 30.36 in 10.0 mi South 9.2 mph - N/A   Clear
9:53 PM 33.1 °F 26.9 °F 25.0 °F 72% 30.36 in 10.0 mi South 6.9 mph - N/A   Clear
10:53 PM 32.0 °F 23.6 °F 25.0 °F 75% 30.35 in 10.0 mi South 10.4 mph - N/A   Clear
11:53 PM 30.9 °F 22.8 °F 25.0 °F 79% 30.35 in 10.0 mi South 9.2 mph - N/A   Clear